TimeEDT,TemperatureF,Dew PointF,Humidity,Sea Level PressureIn,VisibilityMPH,Wind Direction,Wind SpeedMPH,Gust SpeedMPH,PrecipitationIn,Events,Conditions,WindDirDegrees,DateUTC
12:15 AM,45.5,43.5,93,30.08,2.0,ESE,4.6,-,N/A,Rain,Rain,110,2013-05-05 04:15:00
12:35 AM,45.5,43.7,93,30.08,2.5,ESE,12.7,16.1,N/A,,Heavy Drizzle,110,2013-05-05 04:35:00
12:55 AM,45.5,43.7,93,30.08,3.0,ESE,9.2,19.6,N/A,,Heavy Drizzle,110,2013-05-05 04:55:00
1:15 AM,45.0,43.2,93,30.08,5.0,ESE,16.1,24.2,0.01,Rain,Light Rain,120,2013-05-05 05:15:00
1:35 AM,45.0,42.8,92,30.08,10.0,ESE,13.8,26.5,0.01,,Overcast,120,2013-05-05 05:35:00
1:55 AM,44.8,42.4,91,30.07,7.0,ESE,18.4,27.6,0.01,,Overcast,110,2013-05-05 05:55:00
2:15 AM,44.8,42.6,92,30.05,4.0,ESE,17.3,27.6,N/A,Rain,Light Rain,110,2013-05-05 06:15:00
2:35 AM,44.6,42.1,91,30.04,7.0,ESE,12.7,25.3,N/A,,Overcast,110,2013-05-05 06:35:00
2:55 AM,44.1,41.0,89,30.04,5.0,ESE,8.1,19.6,N/A,,Light Drizzle,110,2013-05-05 06:55:00
3:15 AM,43.9,41.2,90,30.03,10.0,ESE,4.6,-,N/A,,Overcast,110,2013-05-05 07:15:00
3:35 AM,43.7,40.5,88,30.02,10.0,East,5.8,-,N/A,,Overcast,100,2013-05-05 07:35:00
3:55 AM,43.7,40.5,88,30.02,10.0,Calm,Calm,-,N/A,,Overcast,0,2013-05-05 07:55:00
4:15 AM,43.7,40.6,89,30.02,10.0,ESE,4.6,-,N/A,,Overcast,110,2013-05-05 08:15:00
4:35 AM,43.7,40.6,89,30.02,7.0,ESE,13.8,21.9,N/A,Rain,Light Rain,110,2013-05-05 08:35:00
4:55 AM,42.1,39.2,90,30.01,5.0,East,3.5,-,N/A,Rain,Rain,90,2013-05-05 08:55:00
5:15 AM,41.9,39.4,91,30.01,7.0,East,8.1,-,N/A,,Drizzle,90,2013-05-05 09:15:00
5:35 AM,41.2,38.3,89,30.00,10.0,ENE,4.6,-,N/A,,Overcast,70,2013-05-05 09:35:00
5:55 AM,41.2,37.8,88,29.99,10.0,Calm,Calm,-,N/A,,Overcast,0,2013-05-05 09:55:00
6:15 AM,41.2,37.6,87,30.00,10.0,Calm,Calm,-,N/A,,Overcast,0,2013-05-05 10:15:00
6:35 AM,41.0,36.5,84,30.01,10.0,ESE,9.2,-,N/A,,Overcast,120,2013-05-05 10:35:00
6:55 AM,41.0,35.1,79,30.02,10.0,Calm,Calm,-,N/A,,Overcast,0,2013-05-05 10:55:00
7:15 AM,41.0,35.1,79,30.02,10.0,East,3.5,-,N/A,,Light Drizzle,100,2013-05-05 11:15:00
7:35 AM,41.4,36.1,82,30.02,10.0,Calm,Calm,-,N/A,Rain,Rain,0,2013-05-05 11:35:00
7:55 AM,41.5,36.1,81,30.01,10.0,Calm,Calm,-,N/A,Rain,Light Rain,0,2013-05-05 11:55:00
8:15 AM,41.9,35.1,77,30.00,10.0,East,6.9,-,N/A,Rain,Light Rain,80,2013-05-05 12:15:00
8:35 AM,41.5,35.8,80,30.00,10.0,Calm,Calm,-,N/A,,Overcast,0,2013-05-05 12:35:00
8:55 AM,41.9,36.9,82,30.00,10.0,Calm,Calm,-,N/A,,Overcast,0,2013-05-05 12:55:00
9:15 AM,42.1,36.9,82,30.01,10.0,East,6.9,-,N/A,,Light Drizzle,90,2013-05-05 13:15:00
9:35 AM,42.6,36.3,78,30.00,10.0,East,3.5,-,N/A,,Overcast,100,2013-05-05 13:35:00
9:55 AM,43.2,35.4,74,30.02,10.0,ESE,3.5,-,N/A,,Overcast,110,2013-05-05 13:55:00
10:15 AM,43.3,36.5,77,30.01,10.0,ESE,5.8,-,N/A,,Overcast,110,2013-05-05 14:15:00
10:35 AM,43.7,37.8,80,30.01,10.0,East,4.6,-,N/A,,Overcast,90,2013-05-05 14:35:00
10:55 AM,43.7,37.8,80,30.01,10.0,ESE,9.2,17.3,N/A,,Light Drizzle,110,2013-05-05 14:55:00
11:15 AM,43.7,39.4,85,30.00,10.0,ESE,10.4,16.1,N/A,,Overcast,110,2013-05-05 15:15:00
11:35 AM,43.9,40.1,87,30.00,10.0,East,5.8,-,N/A,,Overcast,100,2013-05-05 15:35:00
11:55 AM,43.9,40.1,87,30.00,3.0,ESE,9.2,-,N/A,,Heavy Drizzle,110,2013-05-05 15:55:00
12:15 PM,44.4,41.9,91,30.00,2.5,ESE,9.2,-,N/A,Rain,Heavy Rain,120,2013-05-05 16:15:00
12:35 PM,43.2,41.2,93,30.00,1.5,SE,3.5,-,N/A,,Drizzle,130,2013-05-05 16:35:00
12:55 PM,44.2,42.3,93,29.99,7.0,ESE,9.2,19.6,N/A,,Overcast,110,2013-05-05 16:55:00
1:15 PM,44.2,42.3,93,29.98,4.0,ESE,11.5,19.6,N/A,Rain,Light Rain,110,2013-05-05 17:15:00
1:35 PM,45.3,43.5,93,29.97,2.0,East,11.5,18.4,0.01,Rain,Rain,100,2013-05-05 17:35:00
1:55 PM,46.6,44.8,93,29.98,2.0,ESE,12.7,24.2,0.02,Rain,Light Rain,110,2013-05-05 17:55:00
2:15 PM,46.8,45.0,93,29.98,4.0,ESE,15.0,23.0,0.04,Rain,Rain,110,2013-05-05 18:15:00
2:35 PM,46.9,45.0,93,29.99,2.5,ESE,8.1,24.2,0.11,Rain,Heavy Rain,120,2013-05-05 18:35:00
2:55 PM,45.5,43.7,93,29.99,0.5,Calm,Calm,-,0.21,,Overcast,0,2013-05-05 18:55:00
3:15 PM,45.0,43.2,93,29.99,0.8,South,3.5,-,0.07,Rain,Rain,190,2013-05-05 19:15:00
3:35 PM,44.4,42.6,93,29.99,0.2,SSW,3.5,-,0.15,,Overcast,200,2013-05-05 19:35:00
3:55 PM,43.7,41.9,93,29.98,0.5,SSE,3.5,-,0.25,,Overcast,160,2013-05-05 19:55:00
4:15 PM,43.9,42.3,94,29.97,0.5,Calm,Calm,-,0.07,,Overcast,0,2013-05-05 20:15:00
4:35 PM,44.8,43.0,93,29.96,1.5,Calm,Calm,-,0.15,Rain,Rain,0,2013-05-05 20:35:00
4:55 PM,46.0,44.4,94,29.93,3.0,East,11.5,-,0.20,Rain,Rain,80,2013-05-05 20:55:00
5:15 PM,46.2,44.4,93,29.94,4.0,ENE,6.9,16.1,0.04,Rain,Rain,70,2013-05-05 21:15:00
5:35 PM,46.0,44.2,93,29.93,1.5,East,6.9,-,0.11,,Overcast,90,2013-05-05 21:35:00
5:55 PM,46.9,45.1,93,29.92,5.0,ESE,17.3,23.0,0.12,Rain,Light Rain,110,2013-05-05 21:55:00
6:15 PM,47.7,45.9,93,29.93,3.0,ESE,19.6,34.5,0.02,Rain,Rain,110,2013-05-05 22:15:00
6:35 PM,47.7,45.7,93,29.93,2.0,ESE,17.3,26.5,0.07,Rain,Rain,110,2013-05-05 22:35:00
7:15 PM,47.5,45.5,93,29.93,3.0,ESE,18.4,32.2,0.03,Rain,Rain,110,2013-05-05 23:15:00
7:35 PM,47.5,45.5,93,29.92,3.0,ESE,16.1,28.8,0.07,Rain,Rain,110,2013-05-05 23:35:00
7:55 PM,47.8,45.9,93,29.92,2.5,ESE,13.8,29.9,0.09,Rain,Light Rain,110,2013-05-05 23:55:00
8:15 PM,48.2,46.2,93,29.92,3.0,ESE,13.8,27.6,0.02,Rain,Light Rain,110,2013-05-06 00:15:00
8:35 PM,48.2,46.4,93,29.92,2.5,ESE,21.9,33.4,0.02,Rain,Light Rain,110,2013-05-06 00:35:00
8:55 PM,48.6,46.8,93,29.92,3.0,ESE,26.5,35.7,0.02,Rain,Light Rain,120,2013-05-06 00:55:00
9:15 PM,48.4,46.6,93,29.91,4.0,East,23.0,29.9,0.02,Rain,Light Rain,100,2013-05-06 01:15:00
9:35 PM,48.4,46.6,93,29.92,5.0,East,20.7,27.6,0.02,Rain,Light Rain,100,2013-05-06 01:35:00
9:55 PM,48.4,46.6,93,29.92,3.0,East,24.2,33.4,0.04,Rain,Rain,100,2013-05-06 01:55:00
10:15 PM,48.4,46.6,93,29.92,3.0,ESE,23.0,32.2,0.03,Rain,Rain,110,2013-05-06 02:15:00
10:35 PM,48.6,46.8,93,29.93,4.0,ESE,15.0,25.3,0.05,Rain,Rain,110,2013-05-06 02:35:00
10:55 PM,48.6,46.8,93,29.93,4.0,East,17.3,25.3,0.10,Rain,Rain,100,2013-05-06 02:55:00
11:15 PM,48.4,46.6,93,29.92,2.5,ESE,19.6,27.6,0.03,Rain,Rain,110,2013-05-06 03:15:00
11:35 PM,48.7,46.9,93,29.93,4.0,ESE,13.8,27.6,0.05,Rain,Rain,110,2013-05-06 03:35:00
11:55 PM,48.6,46.6,93,29.93,3.0,East,19.6,31.1,0.08,Rain,Rain,100,2013-05-06 03:55:00